SCP
1 1 0 0 0 0 0 0 0 0 0 0 0 0 0 1 1 1 1 0 0 0 0 0 0 0 0 0 0 0 0 0 0 0 0 0 0 0 0 0 0 0 0
1 1 1 1 0 0 0 0 0 0 0 0 0 0 0 0 1 0 0 0 0 0 0 0 0 0 0 0 0 0 0 0 0 0 0 0 0 0 0 0 0 0 0
1 1 1 1 1 0 0 0 0 0 0 0 0 0 0 0 0 0 0 0 0 0 0 0 0 0 0 0 0 0 0 0 0 0 0 0 0 0 0 0 0 0 0
1 1 1 1 1 1 0 0 0 0 0 0 0 0 0 0 0 0 0 0 0 0 0 0 0 0 0 0 0 0 0 0 0 0 0 0 0 0 0 0 0 0 0
1 1 1 1 1 1 1 1 0 0 0 0 0 0 0 0 0 0 0 0 0 0 0 0 0 0 0 0 0 0 0 0 0 0 0 0 0 0 0 0 0 1 1
1 1 1 1 1 2 1 1 1 0 0 0 0 0 0 0 0 0 0 0 0 0 0 0 0 0 0 0 0 0 0 0 0 0 0 0 0 0 0 0 0 0 0
1 0 1 1 2 2 2 1 1 0 0 0 0 0 0 0 0 0 0 0 0 0 0 0 0 0 0 0 0 0 0 0 0 0 0 0 0 0 0 0 0 0 0
1 1 1 1 1 2 2 1 0 0 0 0 0 0 0 0 0 0 0 0 0 0 0 0 0 0 0 0 0 0 0 0 0 0 0 0 0 0 0 0 0 0 0
1 1 1 1 1 1 1 1 0 0 0 0 0 0 0 0 0 0 0 0 0 0 0 0 0 0 0 0 0 0 1 1 0 0 0 0 0 0 0 0 0 0 0
1 2 2 1 1 1 1 1 0 0 0 0 0 0 0 0 0 0 0 0 0 0 0 0 0 0 0 0 0 0 1 0 0 0 0 0 0 0 0 0 0 0 0
1 2 2 1 1 0 0 0 0 0 0 0 0 0 0 0 0 0 0 0 0 0 0 0 0 0 0 0 0 0 0 0 0 0 0 0 0 0 0 0 0 0 0
1 1 1 1 1 0 0 0 0 0 0 0 0 0 0 0 0 0 0 0 0 0 0 0 0 0 0 0 0 0 0 0 0 0 0 0 0 0 0 0 0 0 0
1 1 1 1 1 1 0 0 0 0 0 0 0 0 0 0 0 0 0 0 0 0 0 0 0 0 0 0 0 0 0 0 0 0 0 0 0 0 0 0 0 0 0
2 1 1 1 1 1 1 0 0 0 0 0 0 0 0 0 0 0 0 0 0 0 0 0 1 1 0 0 0 0 0 0 0 0 0 0 0 0 0 0 0 0 0
2 2 1 1 1 1 1 1 1 0 0 0 0 0 0 0 0 0 0 0 0 0 0 0 0 1 0 0 0 0 0 0 0 0 0 0 0 0 0 0 0 0 0
2 2 2 1 1 1 1 1 1 1 1 0 0 0 0 0 0 0 0 0 0 0 0 0 0 0 0 0 0 0 0 0 0 0 0 0 0 0 0 0 1 0 0
3 3 3 2 2 1 1 1 1 1 1 0 0 0 0 0 0 0 0 0 0 0 0 0 0 0 0 0 0 0 0 0 0 0 0 0 0 0 1 1 1 1 1
3 3 3 2 2 2 2 1 1 1 1 0 0 0 0 0 0 0 0 0 0 0 0 0 0 0 0 0 0 0 0 0 0 0 0 0 0 0 0 1 1 1 1
3 3 3 3 3 3 2 2 1 1 1 0 0 0 0 1 1 0 0 0 0 0 0 0 0 0 0 0 0 0 0 0 0 0 0 0 0 0 0 1 1 1 1
3 3 3 4 4 3 3 2 2 1 1 1 0 0 1 1 1 1 1 0 0 0 0 0 0 0 0 0 0 0 0 0 0 0 0 0 0 0 0 0 1 1 1
3 4 4 4 4 3 3 2 2 1 1 1 0 1 1 1 1 1 1 1 1 0 0 0 0 0 0 0 0 0 0 0 0 0 0 0 0 0 1 1 1 0 0
4 4 4 4 3 3 2 2 1 1 1 1 1 1 1 1 1 1 1 1 1 1 1 1 1 0 0 1 0 0 0 0 0 0 0 0 0 0 1 1 1 1 0
4 4 4 3 3 3 3 2 2 1 1 1 1 1 0 0 0 1 1 1 1 1 1 1 1 0 0 0 0 0 0 0 0 0 0 0 0 0 1 1 1 1 0
4 4 4 4 3 3 3 3 2 2 2 1 1 1 0 0 0 1 1 1 1 1 1 1 1 1 0 0 0 0 0 0 0 0 0 0 0 0 0 1 1 1 1
5 4 4 4 4 4 4 3 3 2 2 1 1 1 1 0 0 0 1 1 1 1 1 1 1 0 0 0 0 0 0 0 0 0 0 0 0 0 0 0 0 1 1
5 4 4 4 4 4 4 4 3 2 2 1 1 1 1 1 0 0 0 1 1 1 0 0 0 0 0 0 0 0 0 0 0 0 0 0 0 0 0 0 0 1 1
Wind_Speed
4 5 12 13 14 14 14 14 15 15 15 16 16 17 17 17 17 17 17 17 16 16 16 16 17 17 16 17 17 17 17 16 16 16 16 16 16 17 17 17 15 12 17
8 7 14 14 14 14 14 14 14 14 15 15 15 16 16 16 16 16 16 16 16 16 16 16 16 16 16 16 16 16 16 15 15 15 15 15 16 16 16 16 15 10 16
10 8 12 14 14 14 14 13 14 14 14 15 15 15 15 15 16 16 15 15 15 15 15 15 15 15 15 15 15 15 15 15 15 15 14 7 10 15 15 16 16 16 16
11 7 10 14 14 14 14 13 13 14 14 14 14 14 14 14 15 15 15 14 14 14 14 14 14 14 14 14 13 13 13 13 14 14 7 6 7 14 15 16 15 15 15
9 7 10 15 14 14 13 13 13 13 13 13 14 14 14 14 14 14 14 14 14 13 13 13 13 13 12 12 11 10 11 13 14 11 6 6 6 13 15 15 15 15 14
9 7 10 15 14 14 14 13 13 13 13 13 13 13 13 13 13 13 13 13 12 12 12 11 11 11 11 10 10 10 11 14 12 7 6 5 5 13 14 14 14 14 14
9 7 9 15 14 14 13 13 13 13 13 12 13 12 12 13 13 13 12 12 11 11 11 10 9 9 9 9 9 9 11 14 8 6 5 5 6 13 14 13 13 13 13
11 8 8 14 14 14 13 13 13 12 12 12 12 12 12 12 12 12 11 11 10 10 9 9 8 8 8 7 8 8 11 13 10 8 5 5 10 12 13 13 12 12 12
10 8 6 7 9 13 13 12 12 12 12 11 11 12 12 12 11 11 10 10 9 8 8 7 7 6 6 6 6 8 10 12 7 5 7 4 10 12 13 12 12 12 11
8 8 6 6 5 5 7 11 12 11 11 11 11 11 11 11 10 10 8 8 8 7 7 6 5 4 3 4 5 7 10 10 5 5 4 6 12 12 12 12 12 11 11
9 6 6 6 5 5 5 8 9 10 9 9 8 10 8 4 4 5 7 7 7 6 6 5 4 2 1 2 4 6 7 3 5 4 3 9 12 12 12 12 11 11 10
10 8 7 7 7 6 5 4 3 3 4 3 3 4 3 3 3 4 6 7 6 5 4 4 3 1 0 1 2 5 3 4 4 4 5 11 11 12 11 11 10 10 10
12 10 9 8 7 6 4 4 2 2 2 2 3 3 3 2 2 2 1 2 2 3 1 1 1 1 1 1 1 2 4 4 3 3 6 12 11 12 12 11 10 10 10
10 10 9 9 7 6 5 4 3 3 2 2 3 4 3 2 2 2 2 1 1 1 1 1 1 2 2 2 2 4 5 4 3 3 5 12 11 11 12 11 11 10 10
9 8 9 8 8 6 5 4 4 4 3 3 3 3 4 3 3 3 2 2 2 2 2 2 2 2 2 2 2 4 5 5 5 4 4 12 12 11 12 12 11 11 10
9 8 7 8 7 7 5 4 4 4 3 3 3 4 4 4 3 3 3 2 2 2 2 3 3 2 1 1 2 4 5 6 5 5 4 7 12 12 12 12 12 12 11
9 8 8 8 7 6 5 4 3 3 3 3 3 4 4 4 4 3 3 3 3 3 3 2 2 1 1 1 1 3 4 5 5 6 5 4 5 11 12 12 12 13 13
9 9 8 8 6 5 4 4 3 3 4 3 3 3 4 4 4 3 3 3 2 2 2 2 1 1 0 0 1 1 2 3 5 6 5 5 4 5 9 14 13 13 14
10 9 8 7 7 6 4 3 3 3 3 3 3 3 4 4 4 4 3 3 2 2 2 2 2 2 1 1 1 1 2 3 4 6 6 7 6 6 5 10 14 14 15
9 8 8 7 6 5 3 2 1 1 1 2 3 3 4 4 4 4 3 3 3 2 2 2 2 1 2 2 1 1 2 2 3 4 6 6 6 7 7 7 6 9 15
8 8 7 7 6 4 3 2 2 1 1 1 2 4 4 4 4 4 3 3 3 3 3 3 2 2 1 1 1 1 2 2 3 3 4 4 6 7 7 7 5 4 5
8 8 7 6 6 5 3 3 2 2 2 1 1 2 3 4 4 4 4 3 3 3 3 3 2 2 1 2 3 1 1 3 3 3 2 4 5 4 6 8 6 6 6
8 7 7 6 5 4 3 2 1 1 1 1 1 1 3 4 4 4 5 4 4 4 3 4 3 4 3 2 2 4 3 3 3 2 3 3 3 3 4 5 7 7 7
8 7 6 5 5 4 4 3 3 3 2 3 2 2 3 3 3 4 4 4 4 3 4 4 4 3 3 2 2 2 3 3 2 2 2 2 3 4 5 5 6 6 6
8 7 6 6 5 4 4 5 4 2 2 1 1 2 2 2 2 3 3 4 4 4 4 4 3 4 3 4 3 2 2 1 2 2 3 3 2 2 3 4 4 4 5
6 6 6 6 5 5 4 4 4 4 3 2 2 2 1 1 1 2 2 2 3 3 4 4 3 4 4 4 3 3 3 2 2 2 3 3 3 2 1 2 3 4 4
Wind_Direction
129 130 119 112 107 102 98 94 92 91 90 91 92 93 94 95 96 96 95 95 95 96 97 97 98 101 102 103 105 105 106 107 108 109 111 113 113 112 112 112 109 107 110
139 132 121 117 112 107 102 99 96 95 94 94 96 96 97 98 98 97 97 96 96 96 97 97 98 100 101 103 105 106 107 107 108 107 108 110 112 113 113 113 111 113 113
129 126 122 119 115 110 106 102 101 99 98 98 99 99 100 100 100 100 100 99 98 98 99 99 99 100 101 102 104 107 108 107 106 105 101 97 107 111 113 114 112 111 112
129 127 125 122 118 115 111 108 106 104 102 101 102 102 103 103 103 103 102 101 101 101 102 101 100 100 100 102 104 107 108 109 109 107 96 95 105 112 114 114 113 112 112
124 125 131 125 122 119 116 113 111 110 106 104 105 106 106 106 105 105 104 103 102 103 104 103 102 101 101 101 101 103 108 113 109 100 91 86 98 115 116 116 115 115 115
125 128 135 129 126 124 121 119 116 114 111 109 109 109 109 110 109 108 107 106 106 106 106 106 105 102 100 101 99 99 107 113 106 99 94 95 103 117 119 119 118 118 118
131 132 135 132 130 128 126 124 122 120 118 116 114 114 114 114 114 112 110 110 109 110 111 110 107 102 98 98 96 98 109 116 112 105 100 100 114 122 123 121 119 120 120
136 135 135 136 134 133 131 129 127 126 124 122 121 121 121 120 118 116 116 115 114 114 115 113 110 104 98 96 92 96 114 122 118 115 105 108 125 126 126 124 123 123 123
136 134 132 138 137 138 136 134 133 131 130 128 127 127 128 128 125 123 122 121 120 121 121 119 116 109 98 89 90 100 112 121 119 123 124 121 129 130 129 129 128 128 127
138 141 139 135 132 135 139 141 140 138 139 138 137 136 136 136 133 132 130 129 126 126 127 128 126 118 101 90 92 104 118 118 122 118 119 135 135 135 135 136 135 134 132
147 152 150 146 143 141 146 149 145 144 148 146 146 146 138 127 128 135 145 142 139 137 137 140 144 144 111 83 99 115 117 114 126 125 131 141 143 143 142 142 141 139 137
163 167 165 161 159 161 159 139 144 147 147 141 146 145 142 150 165 158 160 155 155 155 155 162 176 206 359 52 106 120 119 125 132 139 150 150 150 149 148 147 148 148 146
168 170 171 170 169 170 150 153 164 157 153 160 159 157 155 153 159 143 148 161 166 171 172 202 228 293 298 284 151 144 143 138 147 154 159 159 157 156 155 156 156 156 157
166 169 168 168 166 168 158 165 168 167 170 173 177 170 158 154 161 163 164 179 189 191 198 227 253 268 277 258 184 153 151 149 154 150 166 165 164 164 163 164 165 165 166
162 160 161 158 160 158 156 171 170 174 177 176 174 173 162 160 170 173 181 188 202 199 196 207 228 244 241 226 173 154 156 157 157 160 168 173 173 173 173 173 174 174 177
158 156 155 152 152 150 152 158 165 172 170 168 170 177 162 161 165 170 179 187 200 200 196 196 203 205 221 195 171 167 161 161 166 166 171 180 184 184 185 184 185 185 187
155 153 154 154 150 148 149 155 156 168 165 173 183 184 171 163 165 167 169 188 201 196 184 180 197 165 215 202 167 167 164 164 168 176 178 180 189 196 196 196 196 196 197
154 155 162 159 151 156 159 156 155 168 166 176 181 186 178 169 165 159 171 199 200 177 166 170 175 151 191 179 190 186 172 166 179 183 184 187 191 200 206 206 205 204 206
161 160 163 157 164 168 167 165 164 164 170 176 171 184 180 175 170 167 180 200 189 171 174 191 170 164 182 209 223 205 201 190 189 192 194 197 199 203 204 213 211 210 213
159 157 158 160 169 164 160 151 135 141 174 176 176 192 183 180 176 174 186 199 179 168 177 180 168 174 189 200 231 239 243 226 205 201 202 200 206 210 207 210 211 216 217
157 156 160 161 171 163 162 167 169 188 199 198 200 195 190 188 180 181 192 188 181 179 187 182 169 174 203 164 87 342 322 282 232 216 207 199 208 212 204 205 205 208 220
164 164 164 166 172 176 177 179 178 174 188 197 208 199 201 199 195 196 194 192 188 180 186 190 172 171 214 163 143 122 326 324 298 242 218 209 211 206 204 202 199 206 214
163 165 168 167 167 173 171 149 122 88 58 106 187 224 226 213 204 200 195 193 196 188 195 202 190 181 203 218 167 156 170 229 280 295 240 218 211 205 207 201 201 210 211
168 163 161 161 166 169 159 157 163 175 192 208 202 213 234 227 213 208 201 195 199 197 200 210 195 187 180 205 221 206 192 178 185 278 295 252 223 214 213 212 206 208 208
162 162 163 160 168 171 170 174 171 184 199 191 186 199 223 246 236 222 215 203 205 205 207 212 202 195 189 196 203 204 214 215 192 192 260 282 278 238 210 206 203 203 203
159 160 163 161 171 172 176 179 181 188 181 164 170 187 209 255 267 245 229 210 212 210 213 216 210 206 206 207 208 199 192 194 206 198 226 248 259 267 225 202 201 208 208